#timestamp,LO_Frequency,Hit,StdDev 
1557975615.7,286047003.9,N
1557975635.5,286047003.9,N
1557975655.4,286047003.5,N
1557975675.2,286047004.3,N
1557975695.1,286047002.1,N
1557975696.0,286047002.1,N
1557975715.8,286046999.7,N
1557975735.6,286047001.4,N
1557975755.5,286047004.2,N
1557975775.3,286047003.3,N
1557975795.1,286047004.3,N
1557975815.9,286047005.1,N
1557975835.7,286047003.0,N
1557975855.7,286047002.5,N
1557975875.5,286047001.7,N
1557975895.4,286047001.1,N
1557975915.2,286046999.4,N
1557975935.1,286046998.6,N
1557975936.0,286046998.6,N
1557975955.8,286046999.1,N
1557975975.6,286046999.9,N
1557975995.5,286047000.6,N
1557976015.3,286047000.9,N
1557976035.2,286046999.9,N
1557976055.9,286047003.6,N
1557976075.7,286047004.0,N
1557976095.6,286047011.9,Y
1557976115.4,286046998.6,P
1557976135.3,286046998.9,N
1557976155.1,286046997.4,N
1557976156.0,286046997.4,N
1557976175.8,286046996.7,N
1557976195.7,286046998.4,N
1557976215.5,286047000.8,N
1557976235.3,286047000.0,N
1557976255.2,286047001.2,N
1557976275.0,286046998.1,N
1557976275.9,286046998.1,N
1557976295.8,286047000.6,N
1557976315.6,286047000.3,N
1557976335.4,286046998.2,N
1557976355.3,286047000.5,N
1557976375.1,286046999.7,N
1557976395.9,286046999.7,N
1557976415.7,286047002.3,N
1557976435.5,286047001.9,N
1557976455.4,286047004.0,N
1557976475.2,286047002.0,N
1557976495.0,286047001.8,N
1557976495.9,286047001.8,N
1557976515.8,286047000.9,N
1557976535.6,286046998.8,N
1557976555.5,286046998.5,N
1557976575.3,286046996.6,N
1557976595.1,286046997.3,N
1557976615.9,286046996.5,N
1557976635.7,286046995.4,N
1557976655.5,286046995.8,N
1557976675.4,286046995.3,N
1557976695.2,286046995.8,N
1557976715.1,286046994.9,N
1557976716.0,286046994.9,N
1557976735.8,286046998.0,N
1557976755.6,286046993.3,N
1557976775.5,286046995.6,N
1557976795.3,286046993.8,N
1557976815.1,286046995.5,N
1557976835.9,286046993.3,N
1557976855.7,286046995.4,N
1557976875.6,286046995.5,N
1557976895.4,286046996.2,N
1557976915.2,286046997.9,N
1557976935.1,286046997.4,N
1557976936.0,286046997.4,N
1557976955.8,286046997.4,N
1557976975.6,286046996.8,N
1557976995.5,286046997.4,N
1557977015.3,286046995.1,N
1557977035.2,286046997.4,N
1557977055.9,286046998.8,N
1557977075.7,286046998.3,N
1557977095.6,286046998.1,N
1557977115.4,286046998.1,N
1557977135.2,286047000.1,N
1557977155.1,286046999.9,N
1557977156.0,286046999.9,N
1557977175.8,286046998.7,N
1557977195.7,286046999.5,N
1557977215.5,286046997.9,N
1557977235.3,286046999.2,N
1557977255.2,286046997.5,N
1557977275.9,286046997.5,N
1557977295.7,286046997.7,N
1557977315.6,286046997.3,N
1557977335.4,286046996.7,N
1557977355.2,286046997.0,N
1557977375.1,286046998.2,N
1557977376.0,286046998.2,N
1557977395.8,286047000.7,N
1557977415.7,286046998.2,N
1557977435.5,286047000.0,N
1557977485.4,286047002.4,E
1557977495.3,286047000.3,N
1557977515.1,286046997.0,P
1557977535.9,286046997.1,N
1557977555.7,286046996.0,N
1557977575.5,286046996.4,N
1557977595.4,286046995.5,N
1557977615.2,286046996.5,N
1557977635.1,286046997.0,N
1557977636.0,286046997.0,N
1557977655.8,286046998.9,N
1557977675.6,286047001.1,N
1557977695.5,286047001.0,N
1557977715.3,286046999.1,N
1557977735.1,286046996.7,N
1557977755.9,286046998.1,N
1557977775.7,286046998.9,N
1557977795.6,286046999.6,N
1557977815.4,286046996.8,N
1557977835.2,286046998.2,N
1557977855.1,286046998.3,N
1557977856.0,286046998.3,N
1557977875.8,286047001.0,N
1557977895.6,286047002.7,N
1557977915.5,286047002.3,N
1557977935.3,286047000.0,N
1557977955.2,286047002.1,N
1557977975.9,286047002.7,N
1557977995.7,286047001.2,N
1557978015.6,286046999.4,N
1557978035.4,286047001.2,N
1557978055.2,286046999.0,N
1557978075.1,286046999.5,N
1557978076.0,286046999.5,N
1557978095.8,286046999.5,N
1557978115.7,286046997.4,N
1557978135.5,286046995.1,N
1557978155.3,286046995.6,N
1557978175.2,286046996.6,N
1557978195.0,286046996.6,N
1557978195.9,286046996.6,N
1557978215.8,286046996.6,N
1557978235.6,286046996.7,N
1557978255.4,286046998.6,N
1557978275.3,286046996.8,N
1557978295.1,286046999.0,N
1557978315.8,286046996.5,N
1557978335.4,286046999.5,N
1557978355.3,286046997.6,N
1557978375.1,286046995.1,N
1557978395.9,286046997.1,N
1557978415.7,286046999.0,N
1557978435.5,286046996.5,N
1557978455.4,286046999.1,N
1557978475.2,286046997.0,N
1557978495.0,286046997.1,N
1557978495.9,286046997.1,N
1557978515.8,286046996.7,N
1557978535.6,286046999.2,N
1557978555.5,286046998.8,N
1557978575.3,286046999.5,N
1557978595.1,286046997.3,N
1557978615.9,286046997.6,N
1557978635.7,286046997.3,N
1557978655.5,286046997.9,N
1557978675.4,286046995.6,Y
1557978695.2,286046997.3,P
1557978715.1,286046995.2,P
1557978716.0,286046995.2,P
1557978735.8,286046993.7,Y
1557978755.6,286046998.8,P
1557978775.5,286046998.3,N
1557978795.3,286047000.9,N
1557978815.1,286047000.9,N
1557978835.9,286047001.1,N
1557978855.7,286046998.7,N
1557978875.6,286046996.5,N
1557978895.4,286046996.5,N
1557978915.2,286046996.5,N
1557978935.1,286046999.6,N
1557978936.0,286046999.6,N
1557978955.8,286046998.4,N
1557978975.6,286047001.2,N
1557978995.5,286047002.5,N
1557979015.3,286047002.6,N
1557979035.2,286047002.1,N
1557979055.0,286047001.5,N
1557979055.9,286047001.5,N
1557979075.7,286047004.3,N
1557979095.6,286047001.3,N
1557979115.4,286047000.0,N
1557979135.3,286047002.0,N
1557979155.1,286047003.8,N
1557979175.8,286047003.3,N
1557979195.7,286047002.0,N
